Probability
29 26 19 26 26 23 23 16 19 19 19 16 16 16 16 16 16 13 13 16 16 16 13 3 3 3 0 0 0 0 0 0 0 0 0 0 0 0 0 0 3 3 3
23 16 16 19 19 19 23 16 19 16 16 16 16 16 16 16 16 13 13 16 16 13 10 6 3 0 0 0 0 0 0 0 0 0 0 0 0 0 0 0 0 3 0
19 16 16 23 19 23 19 16 16 16 16 16 16 16 16 13 10 10 10 6 13 10 10 3 0 0 0 0 0 0 0 0 0 0 0 0 0 0 0 0 0 0 0
13 13 13 16 16 16 16 16 16 16 16 16 16 13 13 13 10 10 6 3 3 3 6 0 0 0 0 0 0 0 0 0 0 0 0 0 0 0 0 0 0 0 0
6 10 10 10 10 16 16 13 13 16 16 13 13 13 13 10 6 6 3 3 0 0 0 0 0 0 0 0 0 0 0 0 0 0 0 0 0 0 0 0 0 0 0
6 6 10 10 10 13 13 13 16 16 10 13 13 13 10 10 6 3 3 0 0 0 0 0 0 0 0 0 0 0 0 0 0 0 0 0 0 0 0 0 0 0 0
3 3 3 3 3 0 10 13 16 13 13 13 10 10 10 10 6 3 0 0 0 0 0 0 0 0 0 0 0 0 0 0 0 0 0 0 0 0 0 0 0 0 0
3 0 0 3 0 0 0 10 13 13 13 10 10 6 6 3 0 0 0 0 0 0 0 0 0 0 0 0 0 0 0 0 0 0 0 0 0 0 0 0 0 0 0
0 0 0 0 0 0 0 3 10 13 10 10 6 6 6 3 0 0 0 0 0 0 0 0 0 0 0 0 0 0 0 0 0 0 0 0 0 0 0 0 0 0 0
0 0 0 3 0 0 3 3 3 6 10 6 6 6 6 3 0 0 0 0 0 0 0 0 0 0 0 0 0 0 0 0 0 0 0 0 0 0 0 0 0 0 0
0 0 0 3 3 3 3 3 0 3 6 6 3 3 3 3 0 0 0 0 0 0 0 0 0 0 0 0 0 0 0 0 0 0 0 0 0 0 0 0 0 0 0
3 3 0 3 3 3 3 0 0 3 6 3 3 3 3 3 0 0 0 0 0 0 0 0 0 0 0 0 0 0 0 0 0 0 0 0 0 0 0 0 0 0 0
3 3 0 3 3 3 0 0 0 0 3 0 0 3 0 0 0 0 0 0 0 0 0 0 0 0 0 0 0 0 0 0 0 0 0 0 0 0 0 0 0 0 0
3 6 3 3 3 3 0 0 0 0 3 3 0 0 0 0 0 0 0 0 0 0 0 0 0 0 0 0 0 0 0 0 0 0 0 0 0 0 0 0 0 0 0
3 6 6 3 3 3 0 0 0 0 0 3 0 0 0 0 0 0 0 0 0 0 0 0 0 0 0 0 0 0 0 0 0 0 0 0 0 0 0 0 0 0 0
10 6 3 3 3 0 0 0 0 0 0 0 0 0 0 0 0 0 0 0 0 0 0 0 0 0 0 0 0 0 0 0 0 0 0 0 0 0 0 0 0 0 0
10 6 3 3 0 0 0 0 0 0 0 0 0 0 0 0 0 0 0 0 0 0 0 0 0 0 0 0 0 0 0 0 0 0 0 0 0 0 0 0 0 0 0
6 3 0 0 0 0 0 0 0 0 0 0 0 0 0 0 0 0 0 0 0 0 0 0 0 0 0 0 0 0 0 0 0 0 0 0 0 0 0 0 0 0 0
3 3 0 0 0 0 0 0 0 0 0 0 0 0 0 0 0 0 0 0 0 0 0 0 0 0 0 0 0 0 0 0 0 0 0 0 0 0 0 0 0 0 0
3 0 0 0 0 0 0 0 0 0 0 0 0 0 0 0 0 0 0 0 0 0 0 0 0 0 0 0 0 0 0 0 0 0 0 0 0 0 0 0 0 0 0
3 0 0 0 0 0 0 0 0 0 0 0 0 0 0 0 0 0 0 0 0 0 0 0 0 0 0 0 0 0 0 0 0 0 0 0 0 0 0 0 0 0 0
6 0 0 0 0 0 0 0 0 0 0 0 0 0 0 0 0 0 0 0 0 0 0 0 0 0 0 0 0 0 0 0 0 0 0 0 0 0 0 0 0 0 0
6 0 0 0 0 0 0 0 0 0 0 0 0 0 0 0 0 0 0 0 0 0 0 0 0 0 0 0 0 0 0 0 0 0 0 0 0 0 0 0 0 0 0
0 0 0 0 0 0 0 0 0 0 0 0 0 0 0 0 0 0 0 0 0 0 0 0 0 0 0 0 0 0 0 0 0 0 0 0 0 0 0 0 0 0 0
0 0 0 0 0 0 0 0 0 0 0 0 0 0 0 0 0 0 0 0 0 0 0 0 0 0 0 0 0 0 0 0 0 0 0 0 0 0 0 0 0 0 0
3 0 0 0 0 0 0 0 0 0 0 0 0 0 0 0 0 0 0 0 0 0 0 0 0 0 0 0 0 0 0 0 0 0 0 0 0 0 0 0 0 0 0
Height
5838 5837 5836 5835 5834 5834 5834 5834 5833 5832 5832 5831 5830 5829 5829 5828 5828 5827 5827 5826 5826 5825 5825 5824 5824 5824 5823 5822 5821 5821 5820 5819 5819 5818 5817 5816 5815 5814 5813 5812 5811 5810 5809
5833 5832 5831 5830 5829 5829 5829 5829 5829 5828 5828 5827 5827 5826 5825 5825 5824 5824 5823 5822 5822 5821 5821 5821 5820 5820 5819 5819 5818 5817 5817 5816 5815 5814 5813 5812 5811 5810 5809 5808 5807 5806 5805
5828 5827 5826 5826 5825 5825 5825 5825 5825 5824 5824 5823 5823 5822 5822 5821 5820 5820 5819 5818 5817 5817 5816 5816 5816 5816 5815 5815 5814 5813 5813 5812 5811 5810 5809 5808 5807 5806 5805 5804 5803 5801 5801
5823 5822 5822 5821 5820 5820 5820 5820 5820 5820 5820 5820 5819 5819 5818 5817 5816 5816 5815 5814 5813 5812 5812 5812 5812 5812 5811 5810 5810 5809 5808 5808 5807 5806 5805 5804 5803 5802 5801 5800 5799 5798 5797
5818 5817 5817 5816 5815 5816 5816 5816 5816 5816 5816 5815 5815 5815 5814 5813 5812 5811 5811 5810 5809 5808 5808 5808 5808 5808 5807 5806 5805 5805 5804 5803 5802 5801 5800 5799 5799 5798 5797 5796 5795 5793 5792
5813 5813 5812 5811 5811 5811 5811 5811 5811 5811 5811 5811 5811 5810 5810 5809 5808 5807 5807 5806 5805 5805 5805 5804 5804 5803 5803 5802 5801 5800 5799 5799 5798 5797 5796 5795 5794 5793 5792 5791 5790 5789 5788
5808 5808 5807 5807 5806 5806 5806 5806 5806 5806 5806 5806 5806 5806 5806 5805 5804 5803 5803 5802 5802 5801 5801 5800 5800 5799 5799 5798 5797 5796 5795 5794 5794 5793 5792 5791 5790 5789 5787 5786 5785 5784 5782
5804 5803 5803 5802 5802 5802 5802 5802 5802 5802 5802 5801 5801 5801 5801 5800 5800 5799 5799 5798 5798 5797 5796 5796 5795 5795 5794 5793 5792 5791 5790 5789 5789 5788 5787 5786 5785 5783 5782 5781 5780 5779 5778
5800 5799 5799 5798 5798 5798 5798 5797 5797 5797 5797 5797 5797 5796 5796 5796 5795 5795 5795 5794 5793 5793 5792 5791 5790 5790 5789 5788 5787 5786 5785 5785 5784 5783 5782 5781 5779 5778 5777 5776 5775 5774 5773
5795 5795 5795 5794 5793 5793 5793 5793 5793 5793 5793 5793 5792 5792 5792 5791 5791 5791 5790 5789 5788 5788 5787 5786 5785 5784 5784 5783 5782 5781 5780 5779 5778 5777 5776 5775 5774 5773 5772 5771 5770 5769 5767
5790 5790 5790 5789 5789 5789 5789 5789 5789 5789 5789 5788 5788 5788 5787 5787 5786 5786 5785 5784 5783 5782 5782 5781 5780 5779 5778 5778 5777 5776 5775 5774 5773 5772 5771 5770 5768 5767 5766 5765 5764 5763 5762
5785 5785 5785 5785 5784 5784 5784 5784 5784 5784 5784 5784 5783 5783 5782 5782 5781 5780 5780 5779 5778 5778 5777 5776 5775 5774 5773 5772 5771 5770 5769 5768 5767 5766 5765 5764 5763 5761 5760 5759 5758 5757 5755
5779 5779 5779 5779 5779 5779 5779 5779 5779 5779 5778 5778 5778 5778 5777 5776 5775 5775 5774 5773 5773 5772 5771 5770 5769 5768 5767 5766 5765 5764 5763 5762 5761 5760 5759 5758 5757 5755 5754 5753 5752 5750 5749
5772 5773 5773 5773 5773 5773 5773 5773 5773 5773 5773 5773 5772 5772 5771 5771 5770 5769 5769 5768 5767 5766 5765 5764 5763 5762 5761 5760 5759 5758 5757 5755 5754 5753 5752 5751 5750 5749 5748 5746 5745 5744 5742
5766 5766 5767 5767 5767 5767 5767 5767 5767 5767 5767 5767 5766 5765 5765 5764 5764 5763 5762 5761 5760 5759 5758 5757 5756 5756 5755 5754 5752 5751 5750 5749 5748 5747 5746 5745 5743 5742 5741 5739 5738 5736 5735
5759 5759 5760 5760 5761 5761 5761 5761 5761 5761 5760 5760 5759 5759 5758 5758 5757 5756 5756 5755 5753 5753 5752 5751 5750 5749 5748 5747 5745 5744 5743 5742 5741 5740 5739 5738 5737 5735 5734 5732 5730 5729 5727
5752 5753 5753 5753 5754 5754 5754 5754 5754 5754 5753 5753 5752 5752 5751 5750 5750 5749 5749 5748 5747 5746 5745 5744 5743 5742 5741 5739 5738 5737 5736 5735 5734 5733 5732 5731 5729 5728 5726 5725 5723 5721 5719
5745 5745 5746 5746 5747 5747 5747 5747 5747 5747 5747 5746 5746 5745 5744 5743 5743 5742 5741 5740 5739 5738 5738 5737 5736 5735 5733 5732 5731 5730 5729 5728 5727 5725 5724 5723 5722 5720 5719 5717 5715 5713 5711
5738 5738 5738 5739 5739 5739 5739 5739 5739 5739 5739 5739 5738 5738 5737 5736 5735 5734 5734 5733 5732 5731 5730 5729 5728 5727 5726 5725 5724 5722 5721 5720 5719 5718 5717 5715 5714 5712 5711 5709 5707 5705 5703
5731 5731 5731 5731 5731 5731 5731 5731 5731 5731 5731 5731 5731 5730 5729 5728 5727 5726 5725 5724 5723 5722 5722 5721 5720 5719 5718 5717 5716 5715 5714 5713 5712 5710 5709 5707 5706 5704 5703 5701 5699 5697 5695
5724 5724 5724 5723 5723 5723 5723 5723 5722 5723 5723 5723 5722 5722 5721 5720 5719 5718 5717 5716 5715 5714 5713 5712 5711 5710 5710 5709 5708 5707 5706 5705 5704 5702 5701 5700 5698 5696 5695 5693 5691 5689 5687
5717 5717 5716 5715 5715 5715 5715 5714 5714 5714 5714 5714 5713 5712 5712 5711 5710 5709 5708 5707 5706 5705 5704 5703 5703 5702 5701 5701 5700 5699 5698 5697 5696 5695 5693 5692 5690 5688 5687 5684 5682 5680 5678
5709 5709 5708 5708 5707 5707 5707 5706 5706 5706 5705 5705 5705 5704 5703 5702 5701 5700 5700 5698 5698 5697 5696 5695 5694 5694 5693 5692 5691 5691 5690 5689 5688 5687 5685 5684 5682 5680 5678 5676 5674 5672 5671
5702 5702 5701 5701 5700 5700 5700 5699 5699 5698 5697 5697 5696 5696 5695 5694 5693 5692 5691 5690 5689 5688 5687 5686 5686 5685 5685 5684 5683 5683 5682 5681 5680 5678 5677 5676 5674 5672 5670 5668 5666 5665 5663
5695 5695 5695 5694 5694 5693 5692 5692 5691 5691 5690 5689 5688 5688 5687 5685 5684 5683 5682 5681 5680 5680 5679 5678 5678 5677 5677 5676 5675 5675 5674 5672 5671 5670 5669 5667 5666 5664 5662 5661 5659 5657 5655
5688 5688 5688 5687 5687 5686 5686 5685 5684 5683 5683 5682 5680 5679 5678 5677 5676 5675 5674 5673 5672 5671 5671 5670 5669 5669 5668 5668 5667 5666 5666 5664 5663 5662 5660 5659 5657 5656 5654 5653 5651 5649 5648
Wind_Speed
16 17 16 16 15 14 13 13 12 12 11 11 11 9 9 10 10 10 10 11 11 10 11 11 11 10 10 10 11 11 11 11 11 11 11 11 12 13 14 14 14 14 13
17 17 17 17 15 14 13 13 13 12 11 11 11 10 11 11 11 11 11 12 12 12 12 12 12 12 12 12 12 12 13 12 12 12 12 12 13 14 14 14 14 14 14
18 17 16 14 14 14 13 13 13 13 12 12 11 11 11 11 12 12 12 13 13 13 13 12 12 13 13 13 14 13 13 13 13 13 14 14 13 13 14 14 14 14 14
17 16 16 16 15 14 14 14 13 13 13 12 12 12 12 12 12 13 13 13 12 12 12 12 13 13 14 14 14 14 14 14 14 14 14 14 14 14 14 14 14 15 15
17 16 16 16 15 15 14 14 14 14 14 13 13 13 13 13 13 14 14 13 12 12 13 13 13 13 13 13 13 14 14 14 15 15 15 15 14 14 14 14 14 15 16
16 16 16 16 15 14 14 13 13 14 14 13 13 14 14 14 14 13 12 13 13 13 13 13 13 13 13 13 13 14 14 15 15 16 15 15 14 15 15 15 16 16 16
16 16 15 15 14 14 13 13 14 14 14 14 14 15 14 14 14 13 12 13 13 13 14 14 14 14 14 14 14 14 14 15 15 15 15 15 15 15 15 16 16 16 16
16 15 14 13 13 13 13 14 15 14 14 15 15 15 15 14 14 14 14 13 14 14 14 14 14 14 15 15 15 15 15 16 16 16 16 16 16 16 16 16 15 16 16
16 15 15 14 14 14 14 15 14 15 15 15 15 15 15 15 14 14 14 14 14 15 14 14 15 15 15 15 16 16 16 17 17 17 17 17 17 17 17 16 16 16 16
16 16 15 15 15 15 15 15 15 16 17 16 16 16 17 16 15 15 16 15 15 15 15 15 16 17 17 17 17 17 17 17 17 18 18 18 18 18 18 18 17 17 17
17 17 17 17 16 16 16 15 16 16 17 18 18 18 18 18 18 18 17 17 16 16 15 16 17 17 18 18 18 18 18 18 18 19 19 19 19 19 19 19 18 18 19
18 18 18 17 17 17 17 17 17 18 18 18 18 18 18 19 19 19 19 18 17 16 16 17 18 18 19 19 19 19 20 20 20 20 20 20 19 19 19 19 19 19 20
19 18 18 18 18 19 19 19 19 19 19 18 18 19 19 19 19 20 19 19 18 18 18 19 19 19 19 20 20 20 20 20 20 20 20 20 20 20 20 20 21 21 21
20 20 19 18 18 18 19 20 20 20 20 20 20 20 20 20 20 20 20 20 20 21 21 21 20 20 20 20 20 20 20 21 21 21 21 20 21 21 21 21 22 23 24
21 21 21 20 19 19 19 20 20 20 21 22 22 22 22 21 20 20 20 20 20 21 21 22 22 22 22 22 22 21 21 21 22 22 21 21 21 22 22 23 23 24 25
21 22 21 20 20 20 21 21 20 20 21 22 23 22 22 21 20 20 20 21 21 21 21 21 21 21 22 22 22 22 22 22 22 22 22 22 22 23 23 24 24 25 25
22 22 21 21 22 21 22 22 22 22 22 22 22 22 22 21 21 21 21 21 21 22 22 21 21 21 21 21 21 22 22 22 22 22 23 23 24 24 24 24 24 24 25
21 22 22 22 23 24 24 24 24 24 23 22 22 22 22 22 22 22 22 22 23 23 23 23 22 22 21 21 21 22 22 22 22 23 23 24 24 23 23 23 24 24 25
22 22 22 23 25 26 26 25 25 25 24 23 23 23 23 23 23 23 23 23 23 23 23 23 22 22 22 21 21 22 22 22 23 23 23 23 23 23 24 24 25 25 25
21 22 22 23 24 25 25 25 25 25 25 24 24 24 24 25 24 24 24 24 24 23 23 23 23 23 23 22 22 22 22 22 22 23 23 24 24 24 24 25 26 26 26
22 22 23 23 24 25 25 25 26 26 25 25 25 25 25 26 26 25 25 24 24 24 24 24 24 24 23 23 23 23 23 23 23 23 24 25 24 24 25 26 26 26 26
22 22 23 24 24 24 24 25 25 25 25 26 26 26 26 26 26 25 25 25 24 24 24 24 24 24 23 24 24 24 23 23 23 24 25 24 24 25 25 25 25 25 25
22 22 23 23 23 22 22 22 23 24 25 25 25 25 25 25 25 25 25 24 24 25 25 24 24 23 24 24 24 24 24 24 25 25 25 24 25 25 25 25 25 25 25
21 21 21 21 21 21 22 22 22 23 23 23 24 24 24 25 24 24 24 24 24 24 24 24 23 23 23 24 24 24 25 25 26 25 25 25 25 25 25 25 25 24 24
20 21 21 21 21 21 21 21 22 22 22 23 23 24 24 24 24 24 25 24 24 24 24 23 23 23 23 24 24 24 25 25 25 25 25 26 26 26 25 25 25 24 23
21 21 21 22 22 22 21 21 21 22 22 23 23 23 23 23 24 24 24 24 23 23 23 22 22 23 23 24 25 25 25 25 26 26 26 26 26 25 25 25 25 24 23
Wind_Direction
289 290 288 286 283 281 275 276 278 280 281 280 277 283 285 286 283 281 280 280 279 278 276 277 278 281 283 280 277 276 278 276 274 274 277 275 275 274 273 276 275 271 270
287 288 284 282 277 276 274 271 274 277 277 276 276 279 280 283 281 278 278 278 278 277 278 278 276 277 279 277 277 278 278 276 277 276 278 278 278 278 275 274 274 272 271
284 284 284 280 277 275 275 268 268 273 276 275 278 278 280 281 281 278 277 277 279 276 275 277 274 275 276 277 276 277 276 276 277 278 279 278 279 280 276 277 276 277 274
287 285 283 282 280 274 275 270 266 271 275 276 276 279 280 280 279 280 277 278 277 271 270 277 276 276 276 277 274 273 274 275 276 277 279 279 280 281 280 277 278 279 279
286 285 284 282 280 276 274 271 266 270 273 275 275 277 279 278 277 277 277 276 275 271 272 276 277 278 278 277 275 273 273 275 276 278 280 280 280 282 283 281 280 280 281
284 283 284 282 280 274 273 272 266 268 270 273 275 277 280 281 282 279 275 278 274 270 271 273 276 277 276 276 274 272 274 277 278 279 280 282 282 283 284 284 282 280 282
285 284 284 282 280 272 267 268 270 270 271 272 274 277 279 279 278 276 276 274 272 272 274 276 278 280 276 274 274 275 277 278 279 280 280 281 282 284 285 286 284 283 283
283 284 283 281 279 273 271 271 271 272 274 275 276 278 276 275 275 278 276 277 277 277 278 281 279 277 277 278 277 277 277 279 281 282 281 282 284 285 286 285 284 285 284
277 278 279 277 275 272 270 271 270 273 276 278 277 278 277 276 275 275 276 276 278 277 278 279 279 277 277 278 278 278 278 280 280 281 280 281 285 286 286 286 285 284 285
277 275 276 275 273 271 272 271 273 275 277 279 278 276 277 278 279 279 279 281 280 277 277 278 278 277 277 276 277 279 280 280 281 282 281 282 284 285 285 284 283 283 285
274 274 275 273 270 269 270 271 274 277 279 280 280 278 277 279 280 282 282 283 280 277 277 277 278 278 277 276 276 278 280 281 281 282 282 283 284 284 285 284 283 282 283
271 273 273 271 269 268 268 271 272 274 279 280 280 279 278 278 279 280 282 282 278 275 275 277 277 277 275 276 278 280 280 280 282 283 283 283 283 283 283 283 283 283 284
270 270 271 270 268 267 268 271 273 275 277 279 280 280 278 277 277 280 281 281 279 276 277 278 278 277 278 278 280 281 282 280 280 281 282 282 283 282 282 283 283 283 284
268 268 267 268 268 269 269 271 273 274 275 277 279 280 280 277 277 277 277 278 279 280 281 282 280 278 277 278 280 281 282 282 281 281 281 281 283 284 283 283 285 285 285
267 267 268 266 265 268 271 272 272 273 275 278 280 281 280 276 276 277 277 278 278 280 280 279 279 278 278 278 279 280 282 283 281 280 279 281 284 285 285 285 286 287 287
265 266 266 265 266 267 268 270 272 274 277 280 280 279 279 277 276 276 278 280 277 279 280 280 280 278 278 279 279 279 280 281 280 279 280 281 283 283 284 285 287 287 287
266 266 264 265 267 267 268 269 271 274 276 277 277 277 278 278 277 278 279 279 279 279 280 281 282 282 283 282 281 280 280 280 280 280 280 280 280 281 283 284 286 287 287
265 266 266 267 268 269 268 268 269 272 274 274 274 275 276 277 277 277 279 280 280 279 279 279 281 282 282 282 282 281 281 280 278 278 279 280 281 281 282 283 285 286 288
266 267 267 268 270 270 270 268 269 270 271 272 273 274 275 276 277 276 277 278 280 280 279 278 277 278 279 280 282 281 280 279 279 280 281 280 280 280 281 283 285 286 286
267 269 269 270 270 270 269 268 268 268 269 270 272 274 274 276 276 276 276 276 278 278 277 276 276 276 277 278 279 281 280 280 281 282 282 281 282 283 285 285 286 286 286
268 270 270 271 271 269 268 268 269 269 270 271 271 273 275 277 278 278 277 277 276 276 275 275 276 277 275 272 273 276 279 280 281 281 281 281 282 283 284 285 286 286 286
269 270 270 271 270 270 269 270 271 271 270 272 274 274 275 278 279 280 277 276 276 276 276 275 276 276 275 272 271 274 277 279 281 281 281 282 284 286 287 286 285 286 288
270 270 271 271 270 270 272 273 273 271 271 272 273 275 275 277 278 279 276 276 275 275 276 276 275 274 273 274 275 274 275 278 280 280 281 283 286 288 289 289 287 286 287
271 269 270 271 270 271 272 273 274 273 273 273 273 273 275 276 277 278 276 276 277 278 278 276 273 273 273 273 275 276 277 277 277 278 280 282 285 288 290 289 288 286 286
272 272 270 271 271 272 274 273 273 274 274 274 275 276 277 276 276 277 276 274 274 275 276 275 274 274 274 274 275 276 278 279 279 280 281 283 285 286 286 287 287 286 285
272 272 272 273 273 273 273 274 275 276 276 277 278 278 278 278 277 277 276 274 274 273 273 272 273 273 274 275 277 277 278 279 280 281 281 283 284 284 285 286 287 287 286